TimeCST,TemperatureF,Dew PointF,Humidity,Sea Level PressureIn,VisibilityMPH,Wind Direction,Wind SpeedMPH,Gust SpeedMPH,PrecipitationIn,Events,Conditions,WindDirDegrees,DateUTC
1:04 AM,-5.8,-11.2,77,30.12,10.0,NW,17.3,-,N/A,,Scattered Clouds,320,2013-01-20 07:04:00
1:14 AM,-5.8,-11.2,77,30.12,9.0,NW,18.4,-,N/A,,Mostly Cloudy,320,2013-01-20 07:14:00
1:51 AM,-5.8,-13.0,71,30.13,9.0,NNW,17.3,-,N/A,,Partly Cloudy,330,2013-01-20 07:51:00
1:53 AM,-6.0,-13.0,72,30.25,9.0,NNW,15.0,-,N/A,,Partly Cloudy,330,2013-01-20 07:53:00
2:15 AM,-7.6,-13.0,77,30.14,8.0,NW,15.0,-,N/A,,Scattered Clouds,320,2013-01-20 08:15:00
2:26 AM,-7.6,-14.8,71,30.15,7.0,NW,13.8,-,N/A,,Mostly Cloudy,320,2013-01-20 08:26:00
2:53 AM,-8.0,-15.0,71,30.28,7.0,NW,12.7,-,N/A,,Overcast,320,2013-01-20 08:53:00
3:30 AM,-7.6,-14.8,71,30.16,2.5,WNW,5.8,-,N/A,,Haze,290,2013-01-20 09:30:00
3:53 AM,-8.0,-15.0,71,30.29,2.5,WNW,9.2,-,N/A,,Haze,290,2013-01-20 09:53:00
4:09 AM,-9.4,-14.8,77,30.17,1.8,WNW,11.5,-,N/A,,Haze,300,2013-01-20 10:09:00
4:26 AM,-9.4,-16.6,71,30.18,2.0,WNW,9.2,-,N/A,,Haze,300,2013-01-20 10:26:00
4:35 AM,-9.4,-16.6,71,30.18,1.8,West,8.1,-,N/A,,Haze,280,2013-01-20 10:35:00
4:50 AM,-9.4,-16.6,71,30.20,2.5,West,8.1,-,N/A,,Haze,270,2013-01-20 10:50:00
4:53 AM,-9.0,-16.1,71,30.32,2.5,West,5.8,-,N/A,,Haze,280,2013-01-20 10:53:00
5:01 AM,-9.4,-16.6,71,30.20,4.0,WNW,8.1,-,N/A,,Haze,290,2013-01-20 11:01:00
5:42 AM,-11.2,-16.6,77,30.20,10.0,WNW,8.1,-,N/A,,Scattered Clouds,300,2013-01-20 11:42:00
5:53 AM,-9.9,-17.0,71,30.33,5.0,WNW,9.2,-,N/A,,Haze,300,2013-01-20 11:53:00
6:07 AM,-9.4,-16.6,71,30.20,2.5,WNW,10.4,-,N/A,,Haze,300,2013-01-20 12:07:00
6:17 AM,-11.2,-16.6,77,30.21,1.8,WNW,10.4,-,N/A,,Haze,300,2013-01-20 12:17:00
6:42 AM,-11.2,-18.4,70,30.21,2.0,NW,10.4,-,N/A,,Haze,310,2013-01-20 12:42:00
6:53 AM,-11.0,-18.0,71,30.35,2.5,NW,11.5,-,N/A,,Haze,310,2013-01-20 12:53:00
7:27 AM,-11.2,-18.4,70,30.21,4.0,Calm,Calm,-,N/A,,Haze,0,2013-01-20 13:27:00
7:44 AM,-11.2,-18.4,70,30.22,2.5,West,3.5,-,N/A,,Haze,270,2013-01-20 13:44:00
7:53 AM,-13.0,-18.9,75,30.36,1.8,Calm,Calm,-,N/A,,Haze,0,2013-01-20 13:53:00
8:17 AM,-13.0,-18.4,77,30.21,2.0,WNW,4.6,-,N/A,,Haze,300,2013-01-20 14:17:00
8:31 AM,-11.2,-18.4,70,30.22,1.8,NW,6.9,-,N/A,,Haze,310,2013-01-20 14:31:00
8:53 AM,-11.9,-18.9,71,30.36,1.2,WNW,9.2,-,N/A,,Haze,300,2013-01-20 14:53:00
9:17 AM,-11.2,-18.4,70,30.23,2.5,WNW,5.8,-,N/A,,Haze,290,2013-01-20 15:17:00
9:20 AM,-9.4,-16.6,71,30.23,3.0,WNW,6.9,-,N/A,,Haze,290,2013-01-20 15:20:00
9:40 AM,-9.4,-16.6,71,30.24,9.0,WNW,9.2,-,N/A,,Scattered Clouds,300,2013-01-20 15:40:00
9:53 AM,-9.0,-16.1,71,30.38,10.0,West,6.9,-,N/A,,Scattered Clouds,280,2013-01-20 15:53:00
10:53 AM,-8.0,-15.0,71,30.38,4.0,WNW,5.8,-,N/A,,Haze,300,2013-01-20 16:53:00
11:16 AM,-7.6,-14.8,71,30.24,2.0,WNW,5.8,-,0.00,Snow,Light Snow,290,2013-01-20 17:16:00
11:23 AM,-7.6,-14.8,71,30.23,1.2,WNW,5.8,-,0.00,Snow,Light Snow,290,2013-01-20 17:23:00
11:35 AM,-5.8,-14.8,65,30.23,3.0,WNW,8.1,-,0.00,,Haze,300,2013-01-20 17:35:00
11:53 AM,-6.0,-15.0,65,30.36,10.0,WNW,8.1,-,0.00,,Overcast,300,2013-01-20 17:53:00
12:40 PM,-4.0,-13.0,65,30.21,10.0,NW,8.1,-,N/A,,Overcast,310,2013-01-20 18:40:00
12:53 PM,-4.0,-14.1,62,30.34,10.0,NW,10.4,-,0.00,,Overcast,310,2013-01-20 18:53:00
1:53 PM,-2.0,-13.0,60,30.32,10.0,WNW,6.9,-,0.00,,Mostly Cloudy,300,2013-01-20 19:53:00
2:02 PM,-2.2,-13.0,60,30.18,10.0,WNW,9.2,-,N/A,,Scattered Clouds,290,2013-01-20 20:02:00
2:45 PM,-0.4,-11.2,60,30.18,5.0,WNW,10.4,-,N/A,,Haze,300,2013-01-20 20:45:00
2:53 PM,-0.9,-11.9,60,30.31,5.0,West,6.9,-,N/A,,Haze,270,2013-01-20 20:53:00
3:53 PM,-0.9,-11.0,62,30.30,6.0,West,5.8,-,N/A,,Haze,280,2013-01-20 21:53:00
4:53 PM,-2.9,-13.0,62,30.29,10.0,West,4.6,-,N/A,,Scattered Clouds,280,2013-01-20 22:53:00
5:40 PM,-5.8,-14.8,65,30.14,10.0,West,3.5,-,N/A,,Mostly Cloudy,260,2013-01-20 23:40:00
5:53 PM,-6.0,-14.1,68,30.28,10.0,West,4.6,-,N/A,,Mostly Cloudy,270,2013-01-20 23:53:00
6:01 PM,-5.8,-13.0,71,30.14,10.0,West,3.5,-,N/A,,Scattered Clouds,260,2013-01-21 00:01:00
6:53 PM,-6.0,-14.1,68,30.28,10.0,West,4.6,-,N/A,,Clear,280,2013-01-21 00:53:00
7:53 PM,-6.0,-14.1,68,30.27,10.0,WNW,9.2,-,N/A,,Clear,290,2013-01-21 01:53:00
8:26 PM,-7.6,-14.8,71,30.13,10.0,WNW,6.9,-,N/A,,Mostly Cloudy,290,2013-01-21 02:26:00
8:53 PM,-7.1,-15.0,68,30.27,7.0,West,9.2,-,N/A,,Overcast,280,2013-01-21 02:53:00
9:53 PM,-9.0,-17.0,68,30.26,6.0,WNW,13.8,-,N/A,,Haze,290,2013-01-21 03:53:00
10:53 PM,-11.0,-20.0,64,30.28,6.0,NW,18.4,26.5,N/A,,Haze,310,2013-01-21 04:53:00
11:41 PM,-11.2,-20.2,64,30.13,10.0,WNW,11.5,-,N/A,,Mostly Cloudy,300,2013-01-21 05:41:00
11:53 PM,-13.0,-20.9,68,30.27,10.0,WNW,15.0,21.9,N/A,,Mostly Cloudy,300,2013-01-21 05:53:00